Stündliche Wetter Holykove

Heute, 16 Juni, Mittwoch

Zeit Temperatur Niederschläge Wind Luftdruck Luftfeuchtigkeit
00:00 +21°C° 0.1 mm 1 m/S 749 mmHg 79%
01:00 +21°C° 0.5 mm 1 m/S 750 mmHg 81%
02:00 +19°C° 0.5 mm 0 m/S 750 mmHg 83%
03:00 +18°C° 0 mm 0 m/S 750 mmHg 86%
04:00 +18°C° 0.1 mm 0 m/S 750 mmHg 85%
05:00 +19°C° 0.1 mm 0 m/S 750 mmHg 84%
06:00 +19°C° 0.1 mm 0 m/S 750 mmHg 84%
07:00 +22°C° 0 mm 1 m/S 750 mmHg 79%
08:00 +24°C° 0 mm 1 m/S 750 mmHg 73%
09:00 +25°C° 0 mm 1 m/S 751 mmHg 68%
10:00 +26°C° 0.7 mm 1 m/S 751 mmHg 63%
11:00 +27°C° 0.7 mm 1 m/S 751 mmHg 58%
12:00 +28°C° 0.7 mm 2 m/S 751 mmHg 53%
13:00 +28°C° 0 mm 1 m/S 751 mmHg 52%
14:00 +29°C° 0 mm 1 m/S 751 mmHg 50%
15:00 +29°C° 0 mm 1 m/S 751 mmHg 48%
16:00 +29°C° 0 mm 1 m/S 751 mmHg 51%
17:00 +29°C° 0 mm 1 m/S 751 mmHg 53%
18:00 +28°C° 0 mm 1 m/S 751 mmHg 55%
19:00 +27°C° 0 mm 1 m/S 751 mmHg 61%
20:00 +25°C° 0 mm 2 m/S 751 mmHg 66%
21:00 +24°C° 0 mm 2 m/S 751 mmHg 71%
22:00 +23°C° 0 mm 2 m/S 751 mmHg 73%
23:00 +22°C° 0 mm 3 m/S 751 mmHg 75%

Morgen, 17 Juni, Donnerstag

Zeit Temperatur Niederschläge Wind Luftdruck Luftfeuchtigkeit
00:00 +22°C° 0 mm 3 m/S 751 mmHg 77%
01:00 +21°C° 0.4 mm 3 m/S 752 mmHg 80%
02:00 +21°C° 0.4 mm 2 m/S 752 mmHg 83%
03:00 +20°C° 0.4 mm 2 m/S 752 mmHg 86%
04:00 +20°C° 0 mm 3 m/S 752 mmHg 86%
05:00 +20°C° 0 mm 4 m/S 752 mmHg 86%
06:00 +20°C° 0 mm 5 m/S 752 mmHg 87%
07:00 +21°C° 0 mm 5 m/S 752 mmHg 84%
08:00 +22°C° 0 mm 5 m/S 753 mmHg 81%
09:00 +23°C° 0 mm 5 m/S 753 mmHg 78%
10:00 +25°C° 0 mm 5 m/S 753 mmHg 76%
11:00 +26°C° 0 mm 5 m/S 753 mmHg 74%
12:00 +26°C° 0 mm 5 m/S 754 mmHg 73%
13:00 +27°C° 0.1 mm 6 m/S 754 mmHg 70%
14:00 +27°C° 0.1 mm 6 m/S 754 mmHg 68%
15:00 +28°C° 0.1 mm 6 m/S 754 mmHg 65%
16:00 +28°C° 0.3 mm 6 m/S 754 mmHg 68%
17:00 +27°C° 0.3 mm 6 m/S 754 mmHg 70%
18:00 +27°C° 0.3 mm 6 m/S 754 mmHg 73%
19:00 +26°C° 0.4 mm 7 m/S 754 mmHg 76%
20:00 +24°C° 0.4 mm 7 m/S 754 mmHg 79%
21:00 +23°C° 0.4 mm 7 m/S 755 mmHg 83%
22:00 +22°C° 0.4 mm 7 m/S 755 mmHg 84%
23:00 +21°C° 0.4 mm 7 m/S 756 mmHg 86%

übermorgen, 18 Juni, Freitag

Zeit Temperatur Niederschläge Wind Luftdruck Luftfeuchtigkeit
00:00 +20°C° 0.4 mm 6 m/S 756 mmHg 87%
01:00 +20°C° 0.2 mm 6 m/S 756 mmHg 86%
02:00 +19°C° 0.2 mm 6 m/S 756 mmHg 85%
03:00 +17°C° 0.2 mm 6 m/S 756 mmHg 84%
04:00 +17°C° 0 mm 6 m/S 757 mmHg 84%
05:00 +17°C° 0 mm 5 m/S 757 mmHg 84%
06:00 +17°C° 0 mm 5 m/S 758 mmHg 84%
07:00 +19°C° 0 mm 5 m/S 758 mmHg 79%
08:00 +21°C° 0 mm 6 m/S 758 mmHg 73%
09:00 +22°C° 0 mm 7 m/S 759 mmHg 68%
10:00 +23°C° 0 mm 7 m/S 759 mmHg 64%
11:00 +24°C° 0 mm 7 m/S 759 mmHg 60%
12:00 +26°C° 0 mm 7 m/S 759 mmHg 55%
13:00 +26°C° 0 mm 7 m/S 759 mmHg 55%
14:00 +27°C° 0 mm 7 m/S 759 mmHg 54%
15:00 +27°C° 0 mm 7 m/S 759 mmHg 53%
16:00 +27°C° 0 mm 6 m/S 759 mmHg 56%
17:00 +26°C° 0 mm 6 m/S 759 mmHg 60%
18:00 +26°C° 0 mm 6 m/S 759 mmHg 63%
19:00 +25°C° 0 mm 5 m/S 759 mmHg 67%
20:00 +22°C° 0 mm 5 m/S 759 mmHg 70%
21:00 +21°C° 0 mm 5 m/S 760 mmHg 74%
22:00 +20°C° 0 mm 5 m/S 760 mmHg 74%
23:00 +20°C° 0 mm 5 m/S 760 mmHg 73%

19 Juni, Samstag

Zeit Temperatur Niederschläge Wind Luftdruck Luftfeuchtigkeit
00:00 +19°C° 0 mm 5 m/S 760 mmHg 72%
01:00 +17°C° 0 mm 5 m/S 760 mmHg 73%
02:00 +17°C° 0 mm 5 m/S 760 mmHg 73%
03:00 +16°C° 0 mm 5 m/S 760 mmHg 74%
04:00 +16°C° 0 mm 5 m/S 761 mmHg 74%
05:00 +16°C° 0 mm 5 m/S 761 mmHg 74%
06:00 +16°C° 0 mm 5 m/S 761 mmHg 75%
07:00 +17°C° 0 mm 6 m/S 761 mmHg 70%
08:00 +19°C° 0 mm 6 m/S 761 mmHg 65%
09:00 +21°C° 0 mm 7 m/S 761 mmHg 61%
10:00 +22°C° 0 mm 7 m/S 761 mmHg 58%
11:00 +23°C° 0 mm 7 m/S 761 mmHg 55%
12:00 +24°C° 0 mm 7 m/S 761 mmHg 53%
13:00 +26°C° 0 mm 7 m/S 760 mmHg 52%
14:00 +26°C° 0 mm 7 m/S 760 mmHg 51%
15:00 +27°C° 0 mm 6 m/S 760 mmHg 50%
16:00 +26°C° 0 mm 6 m/S 760 mmHg 52%
17:00 +26°C° 0 mm 6 m/S 760 mmHg 55%
18:00 +26°C° 0 mm 5 m/S 759 mmHg 58%
19:00 +23°C° 0 mm 5 m/S 759 mmHg 64%
20:00 +21°C° 0 mm 4 m/S 760 mmHg 69%
21:00 +20°C° 0 mm 4 m/S 760 mmHg 75%
22:00 +19°C° 0 mm 4 m/S 760 mmHg 74%
23:00 +19°C° 0 mm 4 m/S 760 mmHg 73%

20 Juni, Sonntag

Zeit Temperatur Niederschläge Wind Luftdruck Luftfeuchtigkeit
00:00 +19°C° 0 mm 5 m/S 760 mmHg 72%
01:00 +17°C° 0 mm 5 m/S 760 mmHg 72%
02:00 +18°C° 0 mm 4 m/S 760 mmHg 72%
03:00 +17°C° 0 mm 4 m/S 759 mmHg 72%
04:00 +17°C° 0 mm 4 m/S 760 mmHg 73%
05:00 +16°C° 0 mm 5 m/S 760 mmHg 73%
06:00 +16°C° 0 mm 5 m/S 760 mmHg 74%
07:00 +19°C° 0 mm 5 m/S 760 mmHg 67%
08:00 +21°C° 0 mm 6 m/S 759 mmHg 61%
09:00 +23°C° 0 mm 7 m/S 759 mmHg 55%
10:00 +24°C° 0 mm 7 m/S 759 mmHg 52%
11:00 +26°C° 0 mm 7 m/S 759 mmHg 49%
12:00 +27°C° 0 mm 7 m/S 759 mmHg 46%
13:00 +28°C° 0 mm 7 m/S 758 mmHg 47%
14:00 +28°C° 0 mm 7 m/S 758 mmHg 49%
15:00 +28°C° 0 mm 7 m/S 758 mmHg 50%
16:00 +28°C° 0 mm 6 m/S 758 mmHg 53%
17:00 +28°C° 0 mm 6 m/S 758 mmHg 55%
18:00 +27°C° 0 mm 6 m/S 757 mmHg 57%
19:00 +26°C° 0 mm 6 m/S 757 mmHg 61%
20:00 +23°C° 0 mm 5 m/S 757 mmHg 65%
21:00 +22°C° 0 mm 5 m/S 757 mmHg 70%
22:00 +22°C° 0 mm 5 m/S 757 mmHg 66%
23:00 +22°C° 0 mm 5 m/S 757 mmHg 63%

21 Juni, Montag

Zeit Temperatur Niederschläge Wind Luftdruck Luftfeuchtigkeit
00:00 +21°C° 0 mm 5 m/S 757 mmHg 60%
01:00 +21°C° 0 mm 5 m/S 757 mmHg 60%
02:00 +21°C° 0 mm 5 m/S 757 mmHg 61%
03:00 +20°C° 0 mm 5 m/S 756 mmHg 62%
04:00 +20°C° 0 mm 5 m/S 757 mmHg 65%
05:00 +20°C° 0 mm 5 m/S 757 mmHg 68%
06:00 +20°C° 0 mm 4 m/S 757 mmHg 70%
07:00 +22°C° 0 mm 5 m/S 757 mmHg 65%
08:00 +25°C° 0 mm 5 m/S 756 mmHg 59%
09:00 +27°C° 0 mm 6 m/S 756 mmHg 54%
10:00 +28°C° 0 mm 6 m/S 756 mmHg 50%
11:00 +29°C° 0 mm 7 m/S 756 mmHg 46%
12:00 +32°C° 0 mm 7 m/S 756 mmHg 42%
13:00 +32°C° 0 mm 7 m/S 756 mmHg 42%
14:00 +33°C° 0 mm 7 m/S 755 mmHg 43%
15:00 +33°C° 0 mm 7 m/S 755 mmHg 44%
16:00 +33°C° 0 mm 7 m/S 755 mmHg 46%
17:00 +32°C° 0 mm 6 m/S 755 mmHg 49%
18:00 +30°C° 0 mm 6 m/S 755 mmHg 52%
19:00 +29°C° 0 mm 6 m/S 755 mmHg 58%
20:00 +27°C° 0 mm 5 m/S 755 mmHg 64%
21:00 +25°C° 0 mm 5 m/S 755 mmHg 70%
22:00 +25°C° 0 mm 5 m/S 755 mmHg 69%
23:00 +25°C° 0 mm 5 m/S 755 mmHg 68%
Mehr zeigen

Wir brauchen deine Erlaubnis

Meteoprog und unser Service Anbieter werden persönliche Daten aufbewahren, so wie Cookies, Geräte Bezeichnung oder ähnliche Technologien von deinem Gerät und Prozess, so wie Persönliche Daten Inhalte und Werbungen, genauso wie social Media und den Verkehr zu analysieren.

  • Aufbewahrung und/oder Zugang zu deiner Geräte Informationen.

    Cookies, Geräte Bezeichnung oder andere Informationen, können aufbewahrt oder Zugang zu deinem Gerät erhalten, für den Grund, der oben angegeben wird.

  • Personalisierte Werbung und Inhalte, Messungen, Einblick in das Publikum und Produkt Entwicklung.

    Werbungen und Inhalte können personalisiert werden, basierend auf ein Profil. Mehr Daten können besser personalisierte Werbungen und Inhalte hinzufügen. Werbung und Inhalte können gezeigt und gemessen werden. Einblicke über das Publikum, welche die Werbung gesehen haben und den Inhalt, können abgeleitet werden. So wie Daten können genutzt werden, um es zu verbessern oder die Benutzer Erfahrung zu verbessern das System und die Software.

Wenn du “Ich stimme zu” klickst, erlaubst du uns, die Cookies zu benutzen die Geräte Bezeichnung, den Web oder ähnliche Technologien zu benutzen. Deine Settings, können in deinem Gerät bei deinem Browser geändert werden.

Für den bestimmten Zweck, berechtigten Interessen beruhen darauf, mehr als auf den Inhalt. Du kannst mehr darüber in unseren Privaten und Cookie Politik lesen.